User: anonymous   Login
Location: Unspecified
(0.0000°N, 0.0000°E)
Time: 16:24:17
(UTC+00:00)
Language:

Kiku-4 - Orbit

View from above orbital plane
View from above orbital plane
View from above satellite
View from above satellite

Ground track
Ground track

The orbit data is extracted from the following two-line orbital elements,

1 13492U 82087A   19015.48067549 -.00000106  00000-0  12677-4 0  9998
2 13492  44.6176 349.9968 0012337 275.6734 238.8725 13.70985032820998
Epoch (UTC): 15 January 2019 11:32:10
Eccentricity: 0.0012337
inclination: 44.6176°
perigee height: 987 km
apogee height: 1005 km
right ascension of ascending node: 349.9968°
argument of perigee: 275.6734°
revolutions per day: 13.70985032
mean anomaly at epoch: 238.8725°
orbit number at epoch: 82099

The dashed part of the orbit path shows where the satellite is in the earth's shadow,  

DLR